<?xml version="1.0" encoding="UTF-8" standalone="no" ?>
<gpx xmlns="http://www.topografix.com/GPX/1/1" xmlns:xsi="http://www.w3.org/2001/XMLSchema-instance" xsi:schemaLocation="http://www.topografix.com/GPX/1/1 http://www.topografix.com/GPX/1/1/gpx.xsd" version="1.1" creator="VisuGPX - https://www.visugpx.com">
  <metadata>
    <name>LE PAIN ET L EAU </name>
    <desc><![CDATA[FAIT]]></desc>
  </metadata>
  <trk>
    <name><![CDATA[LE PAIN ET L EAU-18882967]]></name>
    <trkseg>
      <trkpt lat="49.08678" lon="1.89565">
        <ele>80</ele>
        <time>2024-05-05T09:31:58Z</time>
      </trkpt>
      <trkpt lat="49.08675" lon="1.89534">
        <ele>81</ele>
        <time>2024-05-05T09:32:14Z</time>
      </trkpt>
      <trkpt lat="49.0868" lon="1.89513">
        <ele>82</ele>
        <time>2024-05-05T09:32:26Z</time>
      </trkpt>
      <trkpt lat="49.08662" lon="1.89507">
        <ele>82</ele>
        <time>2024-05-05T09:32:41Z</time>
      </trkpt>
      <trkpt lat="49.08645" lon="1.89509">
        <ele>81</ele>
        <time>2024-05-05T09:32:55Z</time>
      </trkpt>
      <trkpt lat="49.08641" lon="1.895">
        <ele>81</ele>
        <time>2024-05-05T09:33:00Z</time>
      </trkpt>
      <trkpt lat="49.08642" lon="1.8949">
        <ele>82</ele>
        <time>2024-05-05T09:33:06Z</time>
      </trkpt>
      <trkpt lat="49.08644" lon="1.8948">
        <ele>82</ele>
        <time>2024-05-05T09:33:11Z</time>
      </trkpt>
      <trkpt lat="49.08644" lon="1.89503">
        <ele>81</ele>
        <time>2024-05-05T09:33:23Z</time>
      </trkpt>
      <trkpt lat="49.08648" lon="1.89508">
        <ele>81</ele>
        <time>2024-05-05T09:33:27Z</time>
      </trkpt>
      <trkpt lat="49.08665" lon="1.89512">
        <ele>82</ele>
        <time>2024-05-05T09:33:41Z</time>
      </trkpt>
      <trkpt lat="49.08679" lon="1.89504">
        <ele>82</ele>
        <time>2024-05-05T09:33:53Z</time>
      </trkpt>
      <trkpt lat="49.08693" lon="1.89476">
        <ele>83</ele>
        <time>2024-05-05T09:34:11Z</time>
      </trkpt>
      <trkpt lat="49.08705" lon="1.89403">
        <ele>85</ele>
        <time>2024-05-05T09:34:51Z</time>
      </trkpt>
      <trkpt lat="49.08717" lon="1.8937">
        <ele>85</ele>
        <time>2024-05-05T09:35:11Z</time>
      </trkpt>
      <trkpt lat="49.08765" lon="1.89407">
        <ele>86</ele>
        <time>2024-05-05T09:35:54Z</time>
      </trkpt>
      <trkpt lat="49.08839" lon="1.89477">
        <ele>85</ele>
        <time>2024-05-05T09:37:03Z</time>
      </trkpt>
      <trkpt lat="49.08838" lon="1.89494">
        <ele>84</ele>
        <time>2024-05-05T09:37:12Z</time>
      </trkpt>
      <trkpt lat="49.08808" lon="1.89555">
        <ele>83</ele>
        <time>2024-05-05T09:37:52Z</time>
      </trkpt>
      <trkpt lat="49.08781" lon="1.89635">
        <ele>82</ele>
        <time>2024-05-05T09:38:40Z</time>
      </trkpt>
      <trkpt lat="49.08787" lon="1.89647">
        <ele>82</ele>
        <time>2024-05-05T09:38:48Z</time>
      </trkpt>
      <trkpt lat="49.08825" lon="1.89692">
        <ele>81</ele>
        <time>2024-05-05T09:39:26Z</time>
      </trkpt>
      <trkpt lat="49.08835" lon="1.89711">
        <ele>81</ele>
        <time>2024-05-05T09:39:39Z</time>
      </trkpt>
      <trkpt lat="49.08853" lon="1.89758">
        <ele>80</ele>
        <time>2024-05-05T09:40:07Z</time>
      </trkpt>
      <trkpt lat="49.08857" lon="1.89794">
        <ele>81</ele>
        <time>2024-05-05T09:40:27Z</time>
      </trkpt>
      <trkpt lat="49.08876" lon="1.89852">
        <ele>84</ele>
        <time>2024-05-05T09:41:01Z</time>
      </trkpt>
      <trkpt lat="49.08896" lon="1.89875">
        <ele>87</ele>
        <time>2024-05-05T09:41:21Z</time>
      </trkpt>
      <trkpt lat="49.08919" lon="1.89889">
        <ele>89</ele>
        <time>2024-05-05T09:41:40Z</time>
      </trkpt>
      <trkpt lat="49.08958" lon="1.89889">
        <ele>90</ele>
        <time>2024-05-05T09:42:12Z</time>
      </trkpt>
      <trkpt lat="49.09012" lon="1.89903">
        <ele>94</ele>
        <time>2024-05-05T09:42:55Z</time>
      </trkpt>
      <trkpt lat="49.09052" lon="1.89922">
        <ele>98</ele>
        <time>2024-05-05T09:43:29Z</time>
      </trkpt>
      <trkpt lat="49.09111" lon="1.89935">
        <ele>101</ele>
        <time>2024-05-05T09:44:17Z</time>
      </trkpt>
      <trkpt lat="49.0912" lon="1.89941">
        <ele>102</ele>
        <time>2024-05-05T09:44:25Z</time>
      </trkpt>
      <trkpt lat="49.09122" lon="1.89953">
        <ele>103</ele>
        <time>2024-05-05T09:44:31Z</time>
      </trkpt>
      <trkpt lat="49.09109" lon="1.89946">
        <ele>102</ele>
        <time>2024-05-05T09:44:42Z</time>
      </trkpt>
      <trkpt lat="49.09109" lon="1.89942">
        <ele>102</ele>
        <time>2024-05-05T09:44:44Z</time>
      </trkpt>
      <trkpt lat="49.09115" lon="1.89951">
        <ele>103</ele>
        <time>2024-05-05T09:44:51Z</time>
      </trkpt>
      <trkpt lat="49.09109" lon="1.89942">
        <ele>102</ele>
        <time>2024-05-05T09:44:58Z</time>
      </trkpt>
      <trkpt lat="49.09124" lon="1.89944">
        <ele>102</ele>
        <time>2024-05-05T09:45:10Z</time>
      </trkpt>
      <trkpt lat="49.09144" lon="1.89961">
        <ele>105</ele>
        <time>2024-05-05T09:45:28Z</time>
      </trkpt>
      <trkpt lat="49.09177" lon="1.89967">
        <ele>108</ele>
        <time>2024-05-05T09:45:55Z</time>
      </trkpt>
      <trkpt lat="49.09218" lon="1.89953">
        <ele>110</ele>
        <time>2024-05-05T09:46:28Z</time>
      </trkpt>
      <trkpt lat="49.09233" lon="1.89945">
        <ele>110</ele>
        <time>2024-05-05T09:46:41Z</time>
      </trkpt>
      <trkpt lat="49.09238" lon="1.89938">
        <ele>110</ele>
        <time>2024-05-05T09:46:46Z</time>
      </trkpt>
      <trkpt lat="49.09253" lon="1.89912">
        <ele>110</ele>
        <time>2024-05-05T09:47:05Z</time>
      </trkpt>
      <trkpt lat="49.09264" lon="1.89859">
        <ele>109</ele>
        <time>2024-05-05T09:47:34Z</time>
      </trkpt>
      <trkpt lat="49.09293" lon="1.89799">
        <ele>111</ele>
        <time>2024-05-05T09:48:13Z</time>
      </trkpt>
      <trkpt lat="49.09299" lon="1.89778">
        <ele>112</ele>
        <time>2024-05-05T09:48:25Z</time>
      </trkpt>
      <trkpt lat="49.09317" lon="1.89747">
        <ele>115</ele>
        <time>2024-05-05T09:48:47Z</time>
      </trkpt>
      <trkpt lat="49.09329" lon="1.89738">
        <ele>117</ele>
        <time>2024-05-05T09:48:57Z</time>
      </trkpt>
      <trkpt lat="49.09356" lon="1.89735">
        <ele>119</ele>
        <time>2024-05-05T09:49:19Z</time>
      </trkpt>
      <trkpt lat="49.09419" lon="1.89746">
        <ele>123</ele>
        <time>2024-05-05T09:50:10Z</time>
      </trkpt>
      <trkpt lat="49.09441" lon="1.89745">
        <ele>124</ele>
        <time>2024-05-05T09:50:27Z</time>
      </trkpt>
      <trkpt lat="49.09465" lon="1.89739">
        <ele>125</ele>
        <time>2024-05-05T09:50:47Z</time>
      </trkpt>
      <trkpt lat="49.09481" lon="1.8973">
        <ele>125</ele>
        <time>2024-05-05T09:51:01Z</time>
      </trkpt>
      <trkpt lat="49.0949" lon="1.89719">
        <ele>126</ele>
        <time>2024-05-05T09:51:10Z</time>
      </trkpt>
      <trkpt lat="49.09499" lon="1.89718">
        <ele>126</ele>
        <time>2024-05-05T09:51:17Z</time>
      </trkpt>
      <trkpt lat="49.09501" lon="1.89727">
        <ele>126</ele>
        <time>2024-05-05T09:51:22Z</time>
      </trkpt>
      <trkpt lat="49.09506" lon="1.89728">
        <ele>126</ele>
        <time>2024-05-05T09:51:26Z</time>
      </trkpt>
      <trkpt lat="49.09518" lon="1.89707">
        <ele>127</ele>
        <time>2024-05-05T09:51:41Z</time>
      </trkpt>
      <trkpt lat="49.09584" lon="1.89652">
        <ele>129</ele>
        <time>2024-05-05T09:52:41Z</time>
      </trkpt>
      <trkpt lat="49.0966" lon="1.89573">
        <ele>133</ele>
        <time>2024-05-05T09:53:54Z</time>
      </trkpt>
      <trkpt lat="49.09684" lon="1.89557">
        <ele>133</ele>
        <time>2024-05-05T09:54:15Z</time>
      </trkpt>
      <trkpt lat="49.09711" lon="1.89548">
        <ele>133</ele>
        <time>2024-05-05T09:54:38Z</time>
      </trkpt>
      <trkpt lat="49.09959" lon="1.89519">
        <ele>135</ele>
        <time>2024-05-05T09:57:57Z</time>
      </trkpt>
      <trkpt lat="49.10021" lon="1.89524">
        <ele>134</ele>
        <time>2024-05-05T09:58:46Z</time>
      </trkpt>
      <trkpt lat="49.10028" lon="1.89519">
        <ele>134</ele>
        <time>2024-05-05T09:58:53Z</time>
      </trkpt>
      <trkpt lat="49.1004" lon="1.89498">
        <ele>134</ele>
        <time>2024-05-05T09:59:07Z</time>
      </trkpt>
      <trkpt lat="49.10062" lon="1.89507">
        <ele>133</ele>
        <time>2024-05-05T09:59:25Z</time>
      </trkpt>
      <trkpt lat="49.10063" lon="1.89519">
        <ele>133</ele>
        <time>2024-05-05T09:59:32Z</time>
      </trkpt>
      <trkpt lat="49.10082" lon="1.8954">
        <ele>132</ele>
        <time>2024-05-05T09:59:51Z</time>
      </trkpt>
      <trkpt lat="49.10109" lon="1.89521">
        <ele>131</ele>
        <time>2024-05-05T10:00:14Z</time>
      </trkpt>
      <trkpt lat="49.10147" lon="1.89486">
        <ele>131</ele>
        <time>2024-05-05T10:00:50Z</time>
      </trkpt>
      <trkpt lat="49.10184" lon="1.8941">
        <ele>131</ele>
        <time>2024-05-05T10:01:40Z</time>
      </trkpt>
      <trkpt lat="49.1019" lon="1.89406">
        <ele>131</ele>
        <time>2024-05-05T10:01:45Z</time>
      </trkpt>
      <trkpt lat="49.10217" lon="1.89435">
        <ele>130</ele>
        <time>2024-05-05T10:02:11Z</time>
      </trkpt>
      <trkpt lat="49.10237" lon="1.89467">
        <ele>129</ele>
        <time>2024-05-05T10:02:34Z</time>
      </trkpt>
      <trkpt lat="49.10302" lon="1.8954">
        <ele>126</ele>
        <time>2024-05-05T10:03:39Z</time>
      </trkpt>
      <trkpt lat="49.10438" lon="1.89724">
        <ele>120</ele>
        <time>2024-05-05T10:06:04Z</time>
      </trkpt>
      <trkpt lat="49.10484" lon="1.8982">
        <ele>119</ele>
        <time>2024-05-05T10:07:07Z</time>
      </trkpt>
      <trkpt lat="49.10503" lon="1.89846">
        <ele>119</ele>
        <time>2024-05-05T10:07:27Z</time>
      </trkpt>
      <trkpt lat="49.10512" lon="1.89873">
        <ele>119</ele>
        <time>2024-05-05T10:07:43Z</time>
      </trkpt>
      <trkpt lat="49.10541" lon="1.89925">
        <ele>118</ele>
        <time>2024-05-05T10:08:19Z</time>
      </trkpt>
      <trkpt lat="49.10568" lon="1.89954">
        <ele>117</ele>
        <time>2024-05-05T10:08:45Z</time>
      </trkpt>
      <trkpt lat="49.10608" lon="1.90007">
        <ele>116</ele>
        <time>2024-05-05T10:09:28Z</time>
      </trkpt>
      <trkpt lat="49.10634" lon="1.90028">
        <ele>116</ele>
        <time>2024-05-05T10:09:51Z</time>
      </trkpt>
      <trkpt lat="49.10659" lon="1.90057">
        <ele>116</ele>
        <time>2024-05-05T10:10:16Z</time>
      </trkpt>
      <trkpt lat="49.10701" lon="1.9009">
        <ele>116</ele>
        <time>2024-05-05T10:10:54Z</time>
      </trkpt>
      <trkpt lat="49.10729" lon="1.9012">
        <ele>116</ele>
        <time>2024-05-05T10:11:22Z</time>
      </trkpt>
      <trkpt lat="49.10774" lon="1.90154">
        <ele>115</ele>
        <time>2024-05-05T10:12:02Z</time>
      </trkpt>
      <trkpt lat="49.10766" lon="1.90151">
        <ele>116</ele>
        <time>2024-05-05T10:12:08Z</time>
      </trkpt>
      <trkpt lat="49.10785" lon="1.90172">
        <ele>115</ele>
        <time>2024-05-05T10:12:27Z</time>
      </trkpt>
      <trkpt lat="49.10841" lon="1.90288">
        <ele>115</ele>
        <time>2024-05-05T10:13:43Z</time>
      </trkpt>
      <trkpt lat="49.10859" lon="1.90315">
        <ele>115</ele>
        <time>2024-05-05T10:14:03Z</time>
      </trkpt>
      <trkpt lat="49.10884" lon="1.90367">
        <ele>114</ele>
        <time>2024-05-05T10:14:37Z</time>
      </trkpt>
      <trkpt lat="49.10898" lon="1.90383">
        <ele>114</ele>
        <time>2024-05-05T10:14:51Z</time>
      </trkpt>
      <trkpt lat="49.10914" lon="1.90418">
        <ele>113</ele>
        <time>2024-05-05T10:15:13Z</time>
      </trkpt>
      <trkpt lat="49.10993" lon="1.90482">
        <ele>111</ele>
        <time>2024-05-05T10:16:25Z</time>
      </trkpt>
      <trkpt lat="49.11053" lon="1.90521">
        <ele>110</ele>
        <time>2024-05-05T10:17:17Z</time>
      </trkpt>
      <trkpt lat="49.11115" lon="1.90574">
        <ele>109</ele>
        <time>2024-05-05T10:18:14Z</time>
      </trkpt>
      <trkpt lat="49.11144" lon="1.90588">
        <ele>110</ele>
        <time>2024-05-05T10:18:38Z</time>
      </trkpt>
      <trkpt lat="49.11169" lon="1.90522">
        <ele>110</ele>
        <time>2024-05-05T10:19:18Z</time>
      </trkpt>
      <trkpt lat="49.11188" lon="1.90453">
        <ele>111</ele>
        <time>2024-05-05T10:19:57Z</time>
      </trkpt>
      <trkpt lat="49.11201" lon="1.9043">
        <ele>111</ele>
        <time>2024-05-05T10:20:13Z</time>
      </trkpt>
      <trkpt lat="49.11204" lon="1.90432">
        <ele>111</ele>
        <time>2024-05-05T10:20:16Z</time>
      </trkpt>
      <trkpt lat="49.112" lon="1.90434">
        <ele>111</ele>
        <time>2024-05-05T10:20:19Z</time>
      </trkpt>
      <trkpt lat="49.11195" lon="1.9043">
        <ele>111</ele>
        <time>2024-05-05T10:20:24Z</time>
      </trkpt>
      <trkpt lat="49.11197" lon="1.90427">
        <ele>111</ele>
        <time>2024-05-05T10:20:26Z</time>
      </trkpt>
      <trkpt lat="49.11194" lon="1.90429">
        <ele>111</ele>
        <time>2024-05-05T10:20:29Z</time>
      </trkpt>
      <trkpt lat="49.11196" lon="1.90415">
        <ele>111</ele>
        <time>2024-05-05T10:20:36Z</time>
      </trkpt>
      <trkpt lat="49.11219" lon="1.90356">
        <ele>112</ele>
        <time>2024-05-05T10:21:12Z</time>
      </trkpt>
      <trkpt lat="49.1124" lon="1.90319">
        <ele>113</ele>
        <time>2024-05-05T10:21:38Z</time>
      </trkpt>
      <trkpt lat="49.11284" lon="1.90204">
        <ele>112</ele>
        <time>2024-05-05T10:22:48Z</time>
      </trkpt>
      <trkpt lat="49.11313" lon="1.90146">
        <ele>111</ele>
        <time>2024-05-05T10:23:26Z</time>
      </trkpt>
      <trkpt lat="49.11323" lon="1.90113">
        <ele>111</ele>
        <time>2024-05-05T10:23:45Z</time>
      </trkpt>
      <trkpt lat="49.11348" lon="1.90072">
        <ele>110</ele>
        <time>2024-05-05T10:24:14Z</time>
      </trkpt>
      <trkpt lat="49.11366" lon="1.90015">
        <ele>110</ele>
        <time>2024-05-05T10:24:48Z</time>
      </trkpt>
      <trkpt lat="49.11384" lon="1.89985">
        <ele>109</ele>
        <time>2024-05-05T10:25:09Z</time>
      </trkpt>
      <trkpt lat="49.11421" lon="1.89896">
        <ele>110</ele>
        <time>2024-05-05T10:26:04Z</time>
      </trkpt>
      <trkpt lat="49.11454" lon="1.89831">
        <ele>112</ele>
        <time>2024-05-05T10:26:47Z</time>
      </trkpt>
      <trkpt lat="49.11628" lon="1.89378">
        <ele>112</ele>
        <time>2024-05-05T10:31:22Z</time>
      </trkpt>
      <trkpt lat="49.11704" lon="1.89227">
        <ele>112</ele>
        <time>2024-05-05T10:33:02Z</time>
      </trkpt>
      <trkpt lat="49.11763" lon="1.89074">
        <ele>112</ele>
        <time>2024-05-05T10:34:35Z</time>
      </trkpt>
      <trkpt lat="49.11798" lon="1.88997">
        <ele>111</ele>
        <time>2024-05-05T10:35:24Z</time>
      </trkpt>
      <trkpt lat="49.11815" lon="1.88946">
        <ele>112</ele>
        <time>2024-05-05T10:35:54Z</time>
      </trkpt>
      <trkpt lat="49.11816" lon="1.88921">
        <ele>112</ele>
        <time>2024-05-05T10:36:08Z</time>
      </trkpt>
      <trkpt lat="49.11823" lon="1.88899">
        <ele>113</ele>
        <time>2024-05-05T10:36:20Z</time>
      </trkpt>
      <trkpt lat="49.11908" lon="1.88709">
        <ele>113</ele>
        <time>2024-05-05T10:38:21Z</time>
      </trkpt>
      <trkpt lat="49.11922" lon="1.88696">
        <ele>113</ele>
        <time>2024-05-05T10:38:34Z</time>
      </trkpt>
      <trkpt lat="49.11942" lon="1.88658">
        <ele>114</ele>
        <time>2024-05-05T10:39:00Z</time>
      </trkpt>
      <trkpt lat="49.11962" lon="1.88598">
        <ele>114</ele>
        <time>2024-05-05T10:39:35Z</time>
      </trkpt>
      <trkpt lat="49.12108" lon="1.88261">
        <ele>114</ele>
        <time>2024-05-05T10:43:07Z</time>
      </trkpt>
      <trkpt lat="49.12157" lon="1.88127">
        <ele>111</ele>
        <time>2024-05-05T10:44:27Z</time>
      </trkpt>
      <trkpt lat="49.1221" lon="1.88025">
        <ele>111</ele>
        <time>2024-05-05T10:45:35Z</time>
      </trkpt>
      <trkpt lat="49.12225" lon="1.87987">
        <ele>111</ele>
        <time>2024-05-05T10:45:59Z</time>
      </trkpt>
      <trkpt lat="49.12225" lon="1.8797">
        <ele>112</ele>
        <time>2024-05-05T10:46:08Z</time>
      </trkpt>
      <trkpt lat="49.12229" lon="1.87976">
        <ele>112</ele>
        <time>2024-05-05T10:46:12Z</time>
      </trkpt>
      <trkpt lat="49.12236" lon="1.87969">
        <ele>112</ele>
        <time>2024-05-05T10:46:19Z</time>
      </trkpt>
      <trkpt lat="49.12255" lon="1.87938">
        <ele>113</ele>
        <time>2024-05-05T10:46:41Z</time>
      </trkpt>
      <trkpt lat="49.12271" lon="1.87897">
        <ele>113</ele>
        <time>2024-05-05T10:47:06Z</time>
      </trkpt>
      <trkpt lat="49.12297" lon="1.87781">
        <ele>114</ele>
        <time>2024-05-05T10:48:10Z</time>
      </trkpt>
      <trkpt lat="49.1237" lon="1.87606">
        <ele>113</ele>
        <time>2024-05-05T10:49:59Z</time>
      </trkpt>
      <trkpt lat="49.12381" lon="1.87569">
        <ele>113</ele>
        <time>2024-05-05T10:50:20Z</time>
      </trkpt>
      <trkpt lat="49.12473" lon="1.87375">
        <ele>116</ele>
        <time>2024-05-05T10:52:26Z</time>
      </trkpt>
      <trkpt lat="49.12629" lon="1.86996">
        <ele>120</ele>
        <time>2024-05-05T10:56:20Z</time>
      </trkpt>
      <trkpt lat="49.1266" lon="1.86911">
        <ele>123</ele>
        <time>2024-05-05T10:57:11Z</time>
      </trkpt>
      <trkpt lat="49.12718" lon="1.86786">
        <ele>123</ele>
        <time>2024-05-05T10:58:32Z</time>
      </trkpt>
      <trkpt lat="49.12753" lon="1.86698">
        <ele>122</ele>
        <time>2024-05-05T10:59:26Z</time>
      </trkpt>
      <trkpt lat="49.12793" lon="1.86616">
        <ele>120</ele>
        <time>2024-05-05T11:00:19Z</time>
      </trkpt>
      <trkpt lat="49.12829" lon="1.86532">
        <ele>121</ele>
        <time>2024-05-05T11:01:12Z</time>
      </trkpt>
      <trkpt lat="49.1284" lon="1.86497">
        <ele>121</ele>
        <time>2024-05-05T11:01:32Z</time>
      </trkpt>
      <trkpt lat="49.12863" lon="1.86455">
        <ele>122</ele>
        <time>2024-05-05T11:02:01Z</time>
      </trkpt>
      <trkpt lat="49.12913" lon="1.86339">
        <ele>124</ele>
        <time>2024-05-05T11:03:14Z</time>
      </trkpt>
      <trkpt lat="49.12998" lon="1.86109">
        <ele>130</ele>
        <time>2024-05-05T11:05:32Z</time>
      </trkpt>
      <trkpt lat="49.13042" lon="1.86025">
        <ele>132</ele>
        <time>2024-05-05T11:06:28Z</time>
      </trkpt>
      <trkpt lat="49.13055" lon="1.86007">
        <ele>133</ele>
        <time>2024-05-05T11:06:43Z</time>
      </trkpt>
      <trkpt lat="49.13089" lon="1.85995">
        <ele>133</ele>
        <time>2024-05-05T11:07:10Z</time>
      </trkpt>
      <trkpt lat="49.13134" lon="1.85967">
        <ele>134</ele>
        <time>2024-05-05T11:07:49Z</time>
      </trkpt>
      <trkpt lat="49.13165" lon="1.85936">
        <ele>134</ele>
        <time>2024-05-05T11:08:19Z</time>
      </trkpt>
      <trkpt lat="49.13241" lon="1.85772">
        <ele>134</ele>
        <time>2024-05-05T11:10:04Z</time>
      </trkpt>
      <trkpt lat="49.13253" lon="1.85718">
        <ele>134</ele>
        <time>2024-05-05T11:10:34Z</time>
      </trkpt>
      <trkpt lat="49.1325" lon="1.85713">
        <ele>134</ele>
        <time>2024-05-05T11:10:38Z</time>
      </trkpt>
      <trkpt lat="49.13278" lon="1.85696">
        <ele>132</ele>
        <time>2024-05-05T11:11:02Z</time>
      </trkpt>
      <trkpt lat="49.13291" lon="1.85692">
        <ele>132</ele>
        <time>2024-05-05T11:11:13Z</time>
      </trkpt>
      <trkpt lat="49.13304" lon="1.85696">
        <ele>131</ele>
        <time>2024-05-05T11:11:23Z</time>
      </trkpt>
      <trkpt lat="49.1331" lon="1.85693">
        <ele>130</ele>
        <time>2024-05-05T11:11:28Z</time>
      </trkpt>
      <trkpt lat="49.13328" lon="1.85709">
        <ele>129</ele>
        <time>2024-05-05T11:11:45Z</time>
      </trkpt>
      <trkpt lat="49.13345" lon="1.85718">
        <ele>128</ele>
        <time>2024-05-05T11:11:59Z</time>
      </trkpt>
      <trkpt lat="49.13386" lon="1.85756">
        <ele>127</ele>
        <time>2024-05-05T11:12:38Z</time>
      </trkpt>
      <trkpt lat="49.13457" lon="1.85853">
        <ele>124</ele>
        <time>2024-05-05T11:13:54Z</time>
      </trkpt>
      <trkpt lat="49.13518" lon="1.85923">
        <ele>121</ele>
        <time>2024-05-05T11:14:55Z</time>
      </trkpt>
      <trkpt lat="49.13525" lon="1.85938">
        <ele>121</ele>
        <time>2024-05-05T11:15:05Z</time>
      </trkpt>
      <trkpt lat="49.13628" lon="1.86074">
        <ele>119</ele>
        <time>2024-05-05T11:16:54Z</time>
      </trkpt>
      <trkpt lat="49.13641" lon="1.86097">
        <ele>119</ele>
        <time>2024-05-05T11:17:10Z</time>
      </trkpt>
      <trkpt lat="49.13661" lon="1.86117">
        <ele>119</ele>
        <time>2024-05-05T11:17:29Z</time>
      </trkpt>
      <trkpt lat="49.13682" lon="1.86154">
        <ele>119</ele>
        <time>2024-05-05T11:17:54Z</time>
      </trkpt>
      <trkpt lat="49.13708" lon="1.86183">
        <ele>119</ele>
        <time>2024-05-05T11:18:20Z</time>
      </trkpt>
      <trkpt lat="49.13722" lon="1.86208">
        <ele>119</ele>
        <time>2024-05-05T11:18:37Z</time>
      </trkpt>
      <trkpt lat="49.13745" lon="1.8623">
        <ele>120</ele>
        <time>2024-05-05T11:18:59Z</time>
      </trkpt>
      <trkpt lat="49.13783" lon="1.8628">
        <ele>121</ele>
        <time>2024-05-05T11:19:39Z</time>
      </trkpt>
      <trkpt lat="49.13863" lon="1.86418">
        <ele>121</ele>
        <time>2024-05-05T11:21:16Z</time>
      </trkpt>
      <trkpt lat="49.13905" lon="1.86472">
        <ele>120</ele>
        <time>2024-05-05T11:22:00Z</time>
      </trkpt>
      <trkpt lat="49.13915" lon="1.86494">
        <ele>120</ele>
        <time>2024-05-05T11:22:14Z</time>
      </trkpt>
      <trkpt lat="49.14001" lon="1.86623">
        <ele>118</ele>
        <time>2024-05-05T11:23:50Z</time>
      </trkpt>
      <trkpt lat="49.14042" lon="1.86721">
        <ele>117</ele>
        <time>2024-05-05T11:24:51Z</time>
      </trkpt>
      <trkpt lat="49.14087" lon="1.86801">
        <ele>115</ele>
        <time>2024-05-05T11:25:46Z</time>
      </trkpt>
      <trkpt lat="49.14134" lon="1.869">
        <ele>114</ele>
        <time>2024-05-05T11:26:51Z</time>
      </trkpt>
      <trkpt lat="49.14146" lon="1.86917">
        <ele>113</ele>
        <time>2024-05-05T11:27:04Z</time>
      </trkpt>
      <trkpt lat="49.14161" lon="1.86959">
        <ele>113</ele>
        <time>2024-05-05T11:27:29Z</time>
      </trkpt>
      <trkpt lat="49.14205" lon="1.87048">
        <ele>112</ele>
        <time>2024-05-05T11:28:27Z</time>
      </trkpt>
      <trkpt lat="49.14242" lon="1.87137">
        <ele>112</ele>
        <time>2024-05-05T11:29:22Z</time>
      </trkpt>
      <trkpt lat="49.14255" lon="1.87179">
        <ele>112</ele>
        <time>2024-05-05T11:29:47Z</time>
      </trkpt>
      <trkpt lat="49.14274" lon="1.87213">
        <ele>111</ele>
        <time>2024-05-05T11:30:10Z</time>
      </trkpt>
      <trkpt lat="49.14277" lon="1.87228">
        <ele>111</ele>
        <time>2024-05-05T11:30:18Z</time>
      </trkpt>
      <trkpt lat="49.14249" lon="1.87266">
        <ele>110</ele>
        <time>2024-05-05T11:30:48Z</time>
      </trkpt>
      <trkpt lat="49.14193" lon="1.87324">
        <ele>110</ele>
        <time>2024-05-05T11:31:42Z</time>
      </trkpt>
      <trkpt lat="49.14119" lon="1.87414">
        <ele>111</ele>
        <time>2024-05-05T11:32:58Z</time>
      </trkpt>
      <trkpt lat="49.14" lon="1.87546">
        <ele>112</ele>
        <time>2024-05-05T11:34:56Z</time>
      </trkpt>
      <trkpt lat="49.13927" lon="1.876">
        <ele>112</ele>
        <time>2024-05-05T11:36:01Z</time>
      </trkpt>
      <trkpt lat="49.13843" lon="1.87673">
        <ele>111</ele>
        <time>2024-05-05T11:37:18Z</time>
      </trkpt>
      <trkpt lat="49.13789" lon="1.87701">
        <ele>110</ele>
        <time>2024-05-05T11:38:04Z</time>
      </trkpt>
      <trkpt lat="49.13763" lon="1.87719">
        <ele>109</ele>
        <time>2024-05-05T11:38:27Z</time>
      </trkpt>
      <trkpt lat="49.1369" lon="1.87753">
        <ele>107</ele>
        <time>2024-05-05T11:39:28Z</time>
      </trkpt>
      <trkpt lat="49.13642" lon="1.87788">
        <ele>108</ele>
        <time>2024-05-05T11:40:10Z</time>
      </trkpt>
      <trkpt lat="49.13599" lon="1.8785">
        <ele>109</ele>
        <time>2024-05-05T11:40:58Z</time>
      </trkpt>
      <trkpt lat="49.13586" lon="1.87884">
        <ele>109</ele>
        <time>2024-05-05T11:41:18Z</time>
      </trkpt>
      <trkpt lat="49.13495" lon="1.88063">
        <ele>107</ele>
        <time>2024-05-05T11:43:17Z</time>
      </trkpt>
      <trkpt lat="49.13483" lon="1.8808">
        <ele>106</ele>
        <time>2024-05-05T11:43:30Z</time>
      </trkpt>
      <trkpt lat="49.13419" lon="1.88214">
        <ele>107</ele>
        <time>2024-05-05T11:44:57Z</time>
      </trkpt>
      <trkpt lat="49.1339" lon="1.88261">
        <ele>108</ele>
        <time>2024-05-05T11:45:31Z</time>
      </trkpt>
      <trkpt lat="49.13311" lon="1.88371">
        <ele>108</ele>
        <time>2024-05-05T11:46:57Z</time>
      </trkpt>
      <trkpt lat="49.13265" lon="1.88429">
        <ele>109</ele>
        <time>2024-05-05T11:47:44Z</time>
      </trkpt>
      <trkpt lat="49.13266" lon="1.88424">
        <ele>109</ele>
        <time>2024-05-05T11:47:47Z</time>
      </trkpt>
      <trkpt lat="49.13273" lon="1.88418">
        <ele>108</ele>
        <time>2024-05-05T11:47:53Z</time>
      </trkpt>
      <trkpt lat="49.13277" lon="1.88426">
        <ele>108</ele>
        <time>2024-05-05T11:47:59Z</time>
      </trkpt>
      <trkpt lat="49.13308" lon="1.88528">
        <ele>107</ele>
        <time>2024-05-05T11:48:58Z</time>
      </trkpt>
      <trkpt lat="49.13316" lon="1.88567">
        <ele>107</ele>
        <time>2024-05-05T11:49:19Z</time>
      </trkpt>
      <trkpt lat="49.1332" lon="1.88621">
        <ele>108</ele>
        <time>2024-05-05T11:49:48Z</time>
      </trkpt>
      <trkpt lat="49.13335" lon="1.88696">
        <ele>109</ele>
        <time>2024-05-05T11:50:29Z</time>
      </trkpt>
      <trkpt lat="49.13337" lon="1.88729">
        <ele>108</ele>
        <time>2024-05-05T11:50:46Z</time>
      </trkpt>
      <trkpt lat="49.13354" lon="1.88789">
        <ele>109</ele>
        <time>2024-05-05T11:51:20Z</time>
      </trkpt>
      <trkpt lat="49.13354" lon="1.88814">
        <ele>109</ele>
        <time>2024-05-05T11:51:33Z</time>
      </trkpt>
      <trkpt lat="49.13361" lon="1.88824">
        <ele>109</ele>
        <time>2024-05-05T11:51:41Z</time>
      </trkpt>
      <trkpt lat="49.13425" lon="1.88817">
        <ele>108</ele>
        <time>2024-05-05T11:52:32Z</time>
      </trkpt>
      <trkpt lat="49.13469" lon="1.88818">
        <ele>107</ele>
        <time>2024-05-05T11:53:08Z</time>
      </trkpt>
      <trkpt lat="49.13499" lon="1.88887">
        <ele>107</ele>
        <time>2024-05-05T11:53:51Z</time>
      </trkpt>
      <trkpt lat="49.1351" lon="1.88929">
        <ele>107</ele>
        <time>2024-05-05T11:54:15Z</time>
      </trkpt>
      <trkpt lat="49.13582" lon="1.89131">
        <ele>105</ele>
        <time>2024-05-05T11:56:15Z</time>
      </trkpt>
      <trkpt lat="49.13609" lon="1.89187">
        <ele>104</ele>
        <time>2024-05-05T11:56:52Z</time>
      </trkpt>
      <trkpt lat="49.13628" lon="1.89257">
        <ele>103</ele>
        <time>2024-05-05T11:57:31Z</time>
      </trkpt>
      <trkpt lat="49.13625" lon="1.8927">
        <ele>102</ele>
        <time>2024-05-05T11:57:39Z</time>
      </trkpt>
      <trkpt lat="49.13552" lon="1.89417">
        <ele>100</ele>
        <time>2024-05-05T11:59:15Z</time>
      </trkpt>
      <trkpt lat="49.13513" lon="1.89506">
        <ele>98</ele>
        <time>2024-05-05T12:00:11Z</time>
      </trkpt>
      <trkpt lat="49.13495" lon="1.89535">
        <ele>98</ele>
        <time>2024-05-05T12:00:32Z</time>
      </trkpt>
      <trkpt lat="49.13478" lon="1.89581">
        <ele>99</ele>
        <time>2024-05-05T12:01:00Z</time>
      </trkpt>
      <trkpt lat="49.13435" lon="1.89673">
        <ele>101</ele>
        <time>2024-05-05T12:01:59Z</time>
      </trkpt>
      <trkpt lat="49.13421" lon="1.89694">
        <ele>102</ele>
        <time>2024-05-05T12:02:15Z</time>
      </trkpt>
      <trkpt lat="49.13347" lon="1.89853">
        <ele>103</ele>
        <time>2024-05-05T12:03:57Z</time>
      </trkpt>
      <trkpt lat="49.13351" lon="1.89859">
        <ele>103</ele>
        <time>2024-05-05T12:04:02Z</time>
      </trkpt>
      <trkpt lat="49.13369" lon="1.89849">
        <ele>103</ele>
        <time>2024-05-05T12:04:17Z</time>
      </trkpt>
      <trkpt lat="49.13401" lon="1.89812">
        <ele>102</ele>
        <time>2024-05-05T12:04:49Z</time>
      </trkpt>
      <trkpt lat="49.13478" lon="1.89756">
        <ele>99</ele>
        <time>2024-05-05T12:05:57Z</time>
      </trkpt>
      <trkpt lat="49.13544" lon="1.89726">
        <ele>96</ele>
        <time>2024-05-05T12:06:52Z</time>
      </trkpt>
      <trkpt lat="49.13571" lon="1.89739">
        <ele>94</ele>
        <time>2024-05-05T12:07:15Z</time>
      </trkpt>
      <trkpt lat="49.13614" lon="1.89772">
        <ele>95</ele>
        <time>2024-05-05T12:07:54Z</time>
      </trkpt>
      <trkpt lat="49.13642" lon="1.89803">
        <ele>96</ele>
        <time>2024-05-05T12:08:21Z</time>
      </trkpt>
      <trkpt lat="49.13681" lon="1.89856">
        <ele>96</ele>
        <time>2024-05-05T12:09:03Z</time>
      </trkpt>
      <trkpt lat="49.13692" lon="1.89865">
        <ele>97</ele>
        <time>2024-05-05T12:09:13Z</time>
      </trkpt>
      <trkpt lat="49.13698" lon="1.89862">
        <ele>97</ele>
        <time>2024-05-05T12:09:18Z</time>
      </trkpt>
      <trkpt lat="49.137" lon="1.89865">
        <ele>97</ele>
        <time>2024-05-05T12:09:20Z</time>
      </trkpt>
      <trkpt lat="49.13697" lon="1.89868">
        <ele>97</ele>
        <time>2024-05-05T12:09:23Z</time>
      </trkpt>
      <trkpt lat="49.13696" lon="1.89865">
        <ele>97</ele>
        <time>2024-05-05T12:09:25Z</time>
      </trkpt>
      <trkpt lat="49.13693" lon="1.89872">
        <ele>97</ele>
        <time>2024-05-05T12:09:29Z</time>
      </trkpt>
      <trkpt lat="49.13695" lon="1.89885">
        <ele>97</ele>
        <time>2024-05-05T12:09:36Z</time>
      </trkpt>
      <trkpt lat="49.13733" lon="1.89954">
        <ele>97</ele>
        <time>2024-05-05T12:10:24Z</time>
      </trkpt>
      <trkpt lat="49.1375" lon="1.90003">
        <ele>97</ele>
        <time>2024-05-05T12:10:53Z</time>
      </trkpt>
      <trkpt lat="49.13772" lon="1.90145">
        <ele>94</ele>
        <time>2024-05-05T12:12:09Z</time>
      </trkpt>
      <trkpt lat="49.13777" lon="1.90219">
        <ele>92</ele>
        <time>2024-05-05T12:12:48Z</time>
      </trkpt>
      <trkpt lat="49.13788" lon="1.90257">
        <ele>92</ele>
        <time>2024-05-05T12:13:10Z</time>
      </trkpt>
      <trkpt lat="49.13854" lon="1.90346">
        <ele>94</ele>
        <time>2024-05-05T12:14:20Z</time>
      </trkpt>
      <trkpt lat="49.13963" lon="1.90506">
        <ele>97</ele>
        <time>2024-05-05T12:16:21Z</time>
      </trkpt>
      <trkpt lat="49.13996" lon="1.90615">
        <ele>96</ele>
        <time>2024-05-05T12:17:24Z</time>
      </trkpt>
      <trkpt lat="49.14043" lon="1.90714">
        <ele>94</ele>
        <time>2024-05-05T12:18:28Z</time>
      </trkpt>
      <trkpt lat="49.14068" lon="1.90755">
        <ele>94</ele>
        <time>2024-05-05T12:18:58Z</time>
      </trkpt>
      <trkpt lat="49.14078" lon="1.90787">
        <ele>93</ele>
        <time>2024-05-05T12:19:16Z</time>
      </trkpt>
      <trkpt lat="49.14098" lon="1.9083">
        <ele>93</ele>
        <time>2024-05-05T12:19:44Z</time>
      </trkpt>
      <trkpt lat="49.14283" lon="1.91171">
        <ele>90</ele>
        <time>2024-05-05T12:23:36Z</time>
      </trkpt>
      <trkpt lat="49.14267" lon="1.9118">
        <ele>89</ele>
        <time>2024-05-05T12:23:50Z</time>
      </trkpt>
      <trkpt lat="49.14253" lon="1.91211">
        <ele>89</ele>
        <time>2024-05-05T12:24:09Z</time>
      </trkpt>
      <trkpt lat="49.14227" lon="1.91281">
        <ele>87</ele>
        <time>2024-05-05T12:24:52Z</time>
      </trkpt>
      <trkpt lat="49.14225" lon="1.91306">
        <ele>87</ele>
        <time>2024-05-05T12:25:05Z</time>
      </trkpt>
      <trkpt lat="49.14209" lon="1.91353">
        <ele>85</ele>
        <time>2024-05-05T12:25:32Z</time>
      </trkpt>
      <trkpt lat="49.14187" lon="1.91383">
        <ele>82</ele>
        <time>2024-05-05T12:25:56Z</time>
      </trkpt>
      <trkpt lat="49.14156" lon="1.91404">
        <ele>79</ele>
        <time>2024-05-05T12:26:23Z</time>
      </trkpt>
      <trkpt lat="49.14155" lon="1.91428">
        <ele>78</ele>
        <time>2024-05-05T12:26:36Z</time>
      </trkpt>
      <trkpt lat="49.14149" lon="1.91451">
        <ele>78</ele>
        <time>2024-05-05T12:26:49Z</time>
      </trkpt>
      <trkpt lat="49.1415" lon="1.9153">
        <ele>80</ele>
        <time>2024-05-05T12:27:30Z</time>
      </trkpt>
      <trkpt lat="49.14146" lon="1.91548">
        <ele>80</ele>
        <time>2024-05-05T12:27:40Z</time>
      </trkpt>
      <trkpt lat="49.14132" lon="1.91577">
        <ele>80</ele>
        <time>2024-05-05T12:27:59Z</time>
      </trkpt>
      <trkpt lat="49.14119" lon="1.9163">
        <ele>81</ele>
        <time>2024-05-05T12:28:29Z</time>
      </trkpt>
      <trkpt lat="49.1411" lon="1.91648">
        <ele>81</ele>
        <time>2024-05-05T12:28:41Z</time>
      </trkpt>
      <trkpt lat="49.14086" lon="1.91671">
        <ele>80</ele>
        <time>2024-05-05T12:29:03Z</time>
      </trkpt>
      <trkpt lat="49.14081" lon="1.9169">
        <ele>80</ele>
        <time>2024-05-05T12:29:14Z</time>
      </trkpt>
      <trkpt lat="49.14077" lon="1.91693">
        <ele>80</ele>
        <time>2024-05-05T12:29:18Z</time>
      </trkpt>
      <trkpt lat="49.14071" lon="1.91686">
        <ele>80</ele>
        <time>2024-05-05T12:29:24Z</time>
      </trkpt>
      <trkpt lat="49.14064" lon="1.91688">
        <ele>80</ele>
        <time>2024-05-05T12:29:29Z</time>
      </trkpt>
      <trkpt lat="49.14063" lon="1.91685">
        <ele>80</ele>
        <time>2024-05-05T12:29:31Z</time>
      </trkpt>
      <trkpt lat="49.14069" lon="1.91687">
        <ele>80</ele>
        <time>2024-05-05T12:29:36Z</time>
      </trkpt>
      <trkpt lat="49.1407" lon="1.91694">
        <ele>80</ele>
        <time>2024-05-05T12:29:40Z</time>
      </trkpt>
      <trkpt lat="49.14061" lon="1.91724">
        <ele>80</ele>
        <time>2024-05-05T12:29:57Z</time>
      </trkpt>
      <trkpt lat="49.14044" lon="1.9174">
        <ele>80</ele>
        <time>2024-05-05T12:30:13Z</time>
      </trkpt>
      <trkpt lat="49.1403" lon="1.91765">
        <ele>80</ele>
        <time>2024-05-05T12:30:30Z</time>
      </trkpt>
      <trkpt lat="49.1401" lon="1.91812">
        <ele>80</ele>
        <time>2024-05-05T12:31:00Z</time>
      </trkpt>
      <trkpt lat="49.13999" lon="1.9186">
        <ele>81</ele>
        <time>2024-05-05T12:31:26Z</time>
      </trkpt>
      <trkpt lat="49.13978" lon="1.91871">
        <ele>79</ele>
        <time>2024-05-05T12:31:44Z</time>
      </trkpt>
      <trkpt lat="49.13958" lon="1.91876">
        <ele>77</ele>
        <time>2024-05-05T12:32:00Z</time>
      </trkpt>
      <trkpt lat="49.13944" lon="1.91898">
        <ele>76</ele>
        <time>2024-05-05T12:32:16Z</time>
      </trkpt>
      <trkpt lat="49.139" lon="1.91926">
        <ele>73</ele>
        <time>2024-05-05T12:32:54Z</time>
      </trkpt>
      <trkpt lat="49.13876" lon="1.91947">
        <ele>75</ele>
        <time>2024-05-05T12:33:17Z</time>
      </trkpt>
      <trkpt lat="49.1387" lon="1.91941">
        <ele>74</ele>
        <time>2024-05-05T12:33:22Z</time>
      </trkpt>
      <trkpt lat="49.13859" lon="1.91955">
        <ele>75</ele>
        <time>2024-05-05T12:33:34Z</time>
      </trkpt>
      <trkpt lat="49.13833" lon="1.91963">
        <ele>75</ele>
        <time>2024-05-05T12:33:55Z</time>
      </trkpt>
      <trkpt lat="49.13823" lon="1.91971">
        <ele>76</ele>
        <time>2024-05-05T12:34:04Z</time>
      </trkpt>
      <trkpt lat="49.13801" lon="1.91973">
        <ele>75</ele>
        <time>2024-05-05T12:34:22Z</time>
      </trkpt>
      <trkpt lat="49.13765" lon="1.91995">
        <ele>76</ele>
        <time>2024-05-05T12:34:53Z</time>
      </trkpt>
      <trkpt lat="49.13744" lon="1.92018">
        <ele>77</ele>
        <time>2024-05-05T12:35:13Z</time>
      </trkpt>
      <trkpt lat="49.13741" lon="1.92013">
        <ele>76</ele>
        <time>2024-05-05T12:35:17Z</time>
      </trkpt>
      <trkpt lat="49.13731" lon="1.92034">
        <ele>77</ele>
        <time>2024-05-05T12:35:31Z</time>
      </trkpt>
      <trkpt lat="49.13681" lon="1.9209">
        <ele>75</ele>
        <time>2024-05-05T12:36:20Z</time>
      </trkpt>
      <trkpt lat="49.13667" lon="1.92116">
        <ele>74</ele>
        <time>2024-05-05T12:36:38Z</time>
      </trkpt>
      <trkpt lat="49.1363" lon="1.92241">
        <ele>76</ele>
        <time>2024-05-05T12:37:50Z</time>
      </trkpt>
      <trkpt lat="49.13622" lon="1.92277">
        <ele>76</ele>
        <time>2024-05-05T12:38:10Z</time>
      </trkpt>
      <trkpt lat="49.13621" lon="1.92306">
        <ele>77</ele>
        <time>2024-05-05T12:38:25Z</time>
      </trkpt>
      <trkpt lat="49.13579" lon="1.92407">
        <ele>77</ele>
        <time>2024-05-05T12:39:28Z</time>
      </trkpt>
      <trkpt lat="49.13571" lon="1.92431">
        <ele>77</ele>
        <time>2024-05-05T12:39:42Z</time>
      </trkpt>
      <trkpt lat="49.13566" lon="1.92468">
        <ele>78</ele>
        <time>2024-05-05T12:40:01Z</time>
      </trkpt>
      <trkpt lat="49.13558" lon="1.92482">
        <ele>77</ele>
        <time>2024-05-05T12:40:11Z</time>
      </trkpt>
      <trkpt lat="49.13557" lon="1.92492">
        <ele>77</ele>
        <time>2024-05-05T12:40:17Z</time>
      </trkpt>
      <trkpt lat="49.1354" lon="1.92527">
        <ele>76</ele>
        <time>2024-05-05T12:40:39Z</time>
      </trkpt>
      <trkpt lat="49.13524" lon="1.92575">
        <ele>75</ele>
        <time>2024-05-05T12:41:08Z</time>
      </trkpt>
      <trkpt lat="49.13504" lon="1.92613">
        <ele>74</ele>
        <time>2024-05-05T12:41:33Z</time>
      </trkpt>
      <trkpt lat="49.13502" lon="1.92627">
        <ele>74</ele>
        <time>2024-05-05T12:41:41Z</time>
      </trkpt>
      <trkpt lat="49.13506" lon="1.92646">
        <ele>77</ele>
        <time>2024-05-05T12:41:51Z</time>
      </trkpt>
      <trkpt lat="49.13493" lon="1.92681">
        <ele>76</ele>
        <time>2024-05-05T12:42:12Z</time>
      </trkpt>
      <trkpt lat="49.13486" lon="1.92801">
        <ele>77</ele>
        <time>2024-05-05T12:43:15Z</time>
      </trkpt>
      <trkpt lat="49.13468" lon="1.92859">
        <ele>74</ele>
        <time>2024-05-05T12:43:49Z</time>
      </trkpt>
      <trkpt lat="49.13464" lon="1.92906">
        <ele>74</ele>
        <time>2024-05-05T12:44:14Z</time>
      </trkpt>
      <trkpt lat="49.1344" lon="1.92954">
        <ele>73</ele>
        <time>2024-05-05T12:44:45Z</time>
      </trkpt>
      <trkpt lat="49.13432" lon="1.92994">
        <ele>75</ele>
        <time>2024-05-05T12:45:07Z</time>
      </trkpt>
      <trkpt lat="49.13426" lon="1.93005">
        <ele>75</ele>
        <time>2024-05-05T12:45:15Z</time>
      </trkpt>
      <trkpt lat="49.13422" lon="1.93003">
        <ele>74</ele>
        <time>2024-05-05T12:45:18Z</time>
      </trkpt>
      <trkpt lat="49.13419" lon="1.93007">
        <ele>74</ele>
        <time>2024-05-05T12:45:21Z</time>
      </trkpt>
      <trkpt lat="49.13415" lon="1.9302">
        <ele>75</ele>
        <time>2024-05-05T12:45:29Z</time>
      </trkpt>
      <trkpt lat="49.13406" lon="1.93029">
        <ele>75</ele>
        <time>2024-05-05T12:45:38Z</time>
      </trkpt>
      <trkpt lat="49.13385" lon="1.93066">
        <ele>77</ele>
        <time>2024-05-05T12:46:03Z</time>
      </trkpt>
      <trkpt lat="49.13343" lon="1.93105">
        <ele>77</ele>
        <time>2024-05-05T12:46:43Z</time>
      </trkpt>
      <trkpt lat="49.13269" lon="1.93156">
        <ele>80</ele>
        <time>2024-05-05T12:47:48Z</time>
      </trkpt>
      <trkpt lat="49.13242" lon="1.93193">
        <ele>81</ele>
        <time>2024-05-05T12:48:17Z</time>
      </trkpt>
      <trkpt lat="49.13236" lon="1.93236">
        <ele>84</ele>
        <time>2024-05-05T12:48:40Z</time>
      </trkpt>
      <trkpt lat="49.13244" lon="1.93314">
        <ele>87</ele>
        <time>2024-05-05T12:49:21Z</time>
      </trkpt>
      <trkpt lat="49.13235" lon="1.93323">
        <ele>87</ele>
        <time>2024-05-05T12:49:30Z</time>
      </trkpt>
      <trkpt lat="49.13229" lon="1.93357">
        <ele>86</ele>
        <time>2024-05-05T12:49:48Z</time>
      </trkpt>
      <trkpt lat="49.13216" lon="1.93391">
        <ele>85</ele>
        <time>2024-05-05T12:50:09Z</time>
      </trkpt>
      <trkpt lat="49.13155" lon="1.93517">
        <ele>82</ele>
        <time>2024-05-05T12:51:31Z</time>
      </trkpt>
      <trkpt lat="49.13117" lon="1.93626">
        <ele>82</ele>
        <time>2024-05-05T12:52:35Z</time>
      </trkpt>
      <trkpt lat="49.13087" lon="1.93697">
        <ele>83</ele>
        <time>2024-05-05T12:53:20Z</time>
      </trkpt>
      <trkpt lat="49.13046" lon="1.93744">
        <ele>83</ele>
        <time>2024-05-05T12:54:01Z</time>
      </trkpt>
      <trkpt lat="49.13031" lon="1.93741">
        <ele>82</ele>
        <time>2024-05-05T12:54:13Z</time>
      </trkpt>
      <trkpt lat="49.13016" lon="1.93747">
        <ele>81</ele>
        <time>2024-05-05T12:54:25Z</time>
      </trkpt>
      <trkpt lat="49.12971" lon="1.93754">
        <ele>79</ele>
        <time>2024-05-05T12:55:02Z</time>
      </trkpt>
      <trkpt lat="49.12926" lon="1.93753">
        <ele>77</ele>
        <time>2024-05-05T12:55:38Z</time>
      </trkpt>
      <trkpt lat="49.12838" lon="1.93772">
        <ele>69</ele>
        <time>2024-05-05T12:56:49Z</time>
      </trkpt>
      <trkpt lat="49.12794" lon="1.93773">
        <ele>66</ele>
        <time>2024-05-05T12:57:24Z</time>
      </trkpt>
      <trkpt lat="49.12757" lon="1.93779">
        <ele>65</ele>
        <time>2024-05-05T12:57:54Z</time>
      </trkpt>
      <trkpt lat="49.12751" lon="1.93774">
        <ele>65</ele>
        <time>2024-05-05T12:57:59Z</time>
      </trkpt>
      <trkpt lat="49.12751" lon="1.93758">
        <ele>64</ele>
        <time>2024-05-05T12:58:08Z</time>
      </trkpt>
      <trkpt lat="49.12738" lon="1.93768">
        <ele>64</ele>
        <time>2024-05-05T12:58:19Z</time>
      </trkpt>
      <trkpt lat="49.1274" lon="1.93764">
        <ele>64</ele>
        <time>2024-05-05T12:58:22Z</time>
      </trkpt>
      <trkpt lat="49.1275" lon="1.93759">
        <ele>64</ele>
        <time>2024-05-05T12:58:30Z</time>
      </trkpt>
      <trkpt lat="49.12752" lon="1.93764">
        <ele>64</ele>
        <time>2024-05-05T12:58:33Z</time>
      </trkpt>
      <trkpt lat="49.12747" lon="1.93762">
        <ele>64</ele>
        <time>2024-05-05T12:58:38Z</time>
      </trkpt>
      <trkpt lat="49.12749" lon="1.9376">
        <ele>64</ele>
        <time>2024-05-05T12:58:39Z</time>
      </trkpt>
      <trkpt lat="49.12753" lon="1.93764">
        <ele>64</ele>
        <time>2024-05-05T12:58:43Z</time>
      </trkpt>
      <trkpt lat="49.12753" lon="1.93771">
        <ele>65</ele>
        <time>2024-05-05T12:58:47Z</time>
      </trkpt>
      <trkpt lat="49.12729" lon="1.9379">
        <ele>64</ele>
        <time>2024-05-05T12:59:09Z</time>
      </trkpt>
      <trkpt lat="49.12716" lon="1.93814">
        <ele>63</ele>
        <time>2024-05-05T12:59:25Z</time>
      </trkpt>
      <trkpt lat="49.12705" lon="1.93823">
        <ele>63</ele>
        <time>2024-05-05T12:59:35Z</time>
      </trkpt>
      <trkpt lat="49.12692" lon="1.93844">
        <ele>62</ele>
        <time>2024-05-05T12:59:50Z</time>
      </trkpt>
      <trkpt lat="49.12667" lon="1.93867">
        <ele>62</ele>
        <time>2024-05-05T13:00:13Z</time>
      </trkpt>
      <trkpt lat="49.12665" lon="1.93862">
        <ele>61</ele>
        <time>2024-05-05T13:00:16Z</time>
      </trkpt>
      <trkpt lat="49.12674" lon="1.93859">
        <ele>62</ele>
        <time>2024-05-05T13:00:24Z</time>
      </trkpt>
      <trkpt lat="49.12677" lon="1.93866">
        <ele>62</ele>
        <time>2024-05-05T13:00:28Z</time>
      </trkpt>
      <trkpt lat="49.12676" lon="1.93857">
        <ele>62</ele>
        <time>2024-05-05T13:00:33Z</time>
      </trkpt>
      <trkpt lat="49.12665" lon="1.93867">
        <ele>61</ele>
        <time>2024-05-05T13:00:43Z</time>
      </trkpt>
      <trkpt lat="49.12649" lon="1.93871">
        <ele>60</ele>
        <time>2024-05-05T13:00:56Z</time>
      </trkpt>
      <trkpt lat="49.12645" lon="1.93866">
        <ele>60</ele>
        <time>2024-05-05T13:01:00Z</time>
      </trkpt>
      <trkpt lat="49.12657" lon="1.93866">
        <ele>61</ele>
        <time>2024-05-05T13:01:10Z</time>
      </trkpt>
      <trkpt lat="49.12674" lon="1.93857">
        <ele>62</ele>
        <time>2024-05-05T13:01:24Z</time>
      </trkpt>
      <trkpt lat="49.1268" lon="1.93864">
        <ele>62</ele>
        <time>2024-05-05T13:01:30Z</time>
      </trkpt>
      <trkpt lat="49.12669" lon="1.93879">
        <ele>62</ele>
        <time>2024-05-05T13:01:42Z</time>
      </trkpt>
      <trkpt lat="49.12648" lon="1.93892">
        <ele>61</ele>
        <time>2024-05-05T13:02:00Z</time>
      </trkpt>
      <trkpt lat="49.12594" lon="1.93947">
        <ele>58</ele>
        <time>2024-05-05T13:02:52Z</time>
      </trkpt>
      <trkpt lat="49.12498" lon="1.94143">
        <ele>60</ele>
        <time>2024-05-05T13:05:01Z</time>
      </trkpt>
      <trkpt lat="49.12469" lon="1.94182">
        <ele>61</ele>
        <time>2024-05-05T13:05:32Z</time>
      </trkpt>
      <trkpt lat="49.12442" lon="1.94208">
        <ele>61</ele>
        <time>2024-05-05T13:05:57Z</time>
      </trkpt>
      <trkpt lat="49.12415" lon="1.94244">
        <ele>61</ele>
        <time>2024-05-05T13:06:26Z</time>
      </trkpt>
      <trkpt lat="49.12359" lon="1.94304">
        <ele>63</ele>
        <time>2024-05-05T13:07:21Z</time>
      </trkpt>
      <trkpt lat="49.12357" lon="1.94321">
        <ele>63</ele>
        <time>2024-05-05T13:07:30Z</time>
      </trkpt>
      <trkpt lat="49.12391" lon="1.94407">
        <ele>66</ele>
        <time>2024-05-05T13:08:22Z</time>
      </trkpt>
      <trkpt lat="49.12407" lon="1.94478">
        <ele>69</ele>
        <time>2024-05-05T13:09:02Z</time>
      </trkpt>
      <trkpt lat="49.12412" lon="1.94536">
        <ele>72</ele>
        <time>2024-05-05T13:09:32Z</time>
      </trkpt>
      <trkpt lat="49.12422" lon="1.94565">
        <ele>73</ele>
        <time>2024-05-05T13:09:49Z</time>
      </trkpt>
      <trkpt lat="49.12434" lon="1.94627">
        <ele>72</ele>
        <time>2024-05-05T13:10:23Z</time>
      </trkpt>
      <trkpt lat="49.12426" lon="1.94642">
        <ele>72</ele>
        <time>2024-05-05T13:10:33Z</time>
      </trkpt>
      <trkpt lat="49.12412" lon="1.94656">
        <ele>71</ele>
        <time>2024-05-05T13:10:47Z</time>
      </trkpt>
      <trkpt lat="49.12409" lon="1.9467">
        <ele>71</ele>
        <time>2024-05-05T13:10:55Z</time>
      </trkpt>
      <trkpt lat="49.12379" lon="1.94704">
        <ele>68</ele>
        <time>2024-05-05T13:11:24Z</time>
      </trkpt>
      <trkpt lat="49.12323" lon="1.94747">
        <ele>66</ele>
        <time>2024-05-05T13:12:15Z</time>
      </trkpt>
      <trkpt lat="49.12305" lon="1.94783">
        <ele>64</ele>
        <time>2024-05-05T13:12:38Z</time>
      </trkpt>
      <trkpt lat="49.123" lon="1.94782">
        <ele>64</ele>
        <time>2024-05-05T13:12:42Z</time>
      </trkpt>
      <trkpt lat="49.12298" lon="1.94776">
        <ele>64</ele>
        <time>2024-05-05T13:12:46Z</time>
      </trkpt>
      <trkpt lat="49.12294" lon="1.9478">
        <ele>64</ele>
        <time>2024-05-05T13:12:50Z</time>
      </trkpt>
      <trkpt lat="49.12295" lon="1.94801">
        <ele>64</ele>
        <time>2024-05-05T13:13:01Z</time>
      </trkpt>
      <trkpt lat="49.12312" lon="1.94825">
        <ele>63</ele>
        <time>2024-05-05T13:13:19Z</time>
      </trkpt>
      <trkpt lat="49.12317" lon="1.94849">
        <ele>62</ele>
        <time>2024-05-05T13:13:33Z</time>
      </trkpt>
      <trkpt lat="49.12314" lon="1.94858">
        <ele>61</ele>
        <time>2024-05-05T13:13:38Z</time>
      </trkpt>
      <trkpt lat="49.12293" lon="1.94877">
        <ele>61</ele>
        <time>2024-05-05T13:13:57Z</time>
      </trkpt>
      <trkpt lat="49.12285" lon="1.94893">
        <ele>61</ele>
        <time>2024-05-05T13:14:08Z</time>
      </trkpt>
      <trkpt lat="49.12275" lon="1.94901">
        <ele>61</ele>
        <time>2024-05-05T13:14:17Z</time>
      </trkpt>
      <trkpt lat="49.12243" lon="1.94919">
        <ele>61</ele>
        <time>2024-05-05T13:14:44Z</time>
      </trkpt>
      <trkpt lat="49.12213" lon="1.94916">
        <ele>60</ele>
        <time>2024-05-05T13:15:08Z</time>
      </trkpt>
      <trkpt lat="49.12199" lon="1.94902">
        <ele>59</ele>
        <time>2024-05-05T13:15:22Z</time>
      </trkpt>
      <trkpt lat="49.12186" lon="1.94876">
        <ele>58</ele>
        <time>2024-05-05T13:15:39Z</time>
      </trkpt>
      <trkpt lat="49.12167" lon="1.9485">
        <ele>57</ele>
        <time>2024-05-05T13:15:59Z</time>
      </trkpt>
      <trkpt lat="49.12159" lon="1.94821">
        <ele>57</ele>
        <time>2024-05-05T13:16:16Z</time>
      </trkpt>
      <trkpt lat="49.1215" lon="1.94813">
        <ele>57</ele>
        <time>2024-05-05T13:16:24Z</time>
      </trkpt>
      <trkpt lat="49.12065" lon="1.94666">
        <ele>59</ele>
        <time>2024-05-05T13:18:07Z</time>
      </trkpt>
      <trkpt lat="49.12035" lon="1.94586">
        <ele>64</ele>
        <time>2024-05-05T13:18:55Z</time>
      </trkpt>
      <trkpt lat="49.12031" lon="1.94556">
        <ele>65</ele>
        <time>2024-05-05T13:19:11Z</time>
      </trkpt>
      <trkpt lat="49.12015" lon="1.94649">
        <ele>63</ele>
        <time>2024-05-05T13:20:02Z</time>
      </trkpt>
      <trkpt lat="49.12" lon="1.94697">
        <ele>62</ele>
        <time>2024-05-05T13:20:30Z</time>
      </trkpt>
      <trkpt lat="49.1199" lon="1.94757">
        <ele>61</ele>
        <time>2024-05-05T13:21:02Z</time>
      </trkpt>
      <trkpt lat="49.11971" lon="1.94793">
        <ele>64</ele>
        <time>2024-05-05T13:21:26Z</time>
      </trkpt>
      <trkpt lat="49.11967" lon="1.94823">
        <ele>64</ele>
        <time>2024-05-05T13:21:42Z</time>
      </trkpt>
      <trkpt lat="49.1195" lon="1.94845">
        <ele>65</ele>
        <time>2024-05-05T13:22:00Z</time>
      </trkpt>
      <trkpt lat="49.11927" lon="1.94862">
        <ele>66</ele>
        <time>2024-05-05T13:22:21Z</time>
      </trkpt>
      <trkpt lat="49.11898" lon="1.94862">
        <ele>66</ele>
        <time>2024-05-05T13:22:44Z</time>
      </trkpt>
      <trkpt lat="49.11889" lon="1.94866">
        <ele>65</ele>
        <time>2024-05-05T13:22:51Z</time>
      </trkpt>
      <trkpt lat="49.11851" lon="1.94829">
        <ele>65</ele>
        <time>2024-05-05T13:23:27Z</time>
      </trkpt>
      <trkpt lat="49.11826" lon="1.94789">
        <ele>67</ele>
        <time>2024-05-05T13:23:56Z</time>
      </trkpt>
      <trkpt lat="49.11805" lon="1.94769">
        <ele>67</ele>
        <time>2024-05-05T13:24:16Z</time>
      </trkpt>
      <trkpt lat="49.11785" lon="1.94742">
        <ele>67</ele>
        <time>2024-05-05T13:24:38Z</time>
      </trkpt>
      <trkpt lat="49.11702" lon="1.94662">
        <ele>68</ele>
        <time>2024-05-05T13:25:56Z</time>
      </trkpt>
      <trkpt lat="49.11669" lon="1.94647">
        <ele>67</ele>
        <time>2024-05-05T13:26:24Z</time>
      </trkpt>
      <trkpt lat="49.11629" lon="1.94651">
        <ele>62</ele>
        <time>2024-05-05T13:26:56Z</time>
      </trkpt>
      <trkpt lat="49.11603" lon="1.94623">
        <ele>64</ele>
        <time>2024-05-05T13:27:21Z</time>
      </trkpt>
      <trkpt lat="49.11582" lon="1.94613">
        <ele>63</ele>
        <time>2024-05-05T13:27:39Z</time>
      </trkpt>
      <trkpt lat="49.11554" lon="1.94583">
        <ele>65</ele>
        <time>2024-05-05T13:28:06Z</time>
      </trkpt>
      <trkpt lat="49.11537" lon="1.94574">
        <ele>64</ele>
        <time>2024-05-05T13:28:21Z</time>
      </trkpt>
      <trkpt lat="49.11525" lon="1.94562">
        <ele>64</ele>
        <time>2024-05-05T13:28:32Z</time>
      </trkpt>
      <trkpt lat="49.11507" lon="1.94541">
        <ele>64</ele>
        <time>2024-05-05T13:28:50Z</time>
      </trkpt>
      <trkpt lat="49.1147" lon="1.94476">
        <ele>65</ele>
        <time>2024-05-05T13:29:35Z</time>
      </trkpt>
      <trkpt lat="49.11447" lon="1.94404">
        <ele>66</ele>
        <time>2024-05-05T13:30:17Z</time>
      </trkpt>
      <trkpt lat="49.11436" lon="1.94346">
        <ele>68</ele>
        <time>2024-05-05T13:30:49Z</time>
      </trkpt>
      <trkpt lat="49.11427" lon="1.94319">
        <ele>68</ele>
        <time>2024-05-05T13:31:05Z</time>
      </trkpt>
      <trkpt lat="49.11409" lon="1.94215">
        <ele>69</ele>
        <time>2024-05-05T13:32:01Z</time>
      </trkpt>
      <trkpt lat="49.114" lon="1.94195">
        <ele>70</ele>
        <time>2024-05-05T13:32:14Z</time>
      </trkpt>
      <trkpt lat="49.11396" lon="1.94151">
        <ele>71</ele>
        <time>2024-05-05T13:32:37Z</time>
      </trkpt>
      <trkpt lat="49.11377" lon="1.94092">
        <ele>69</ele>
        <time>2024-05-05T13:33:12Z</time>
      </trkpt>
      <trkpt lat="49.11372" lon="1.94033">
        <ele>70</ele>
        <time>2024-05-05T13:33:43Z</time>
      </trkpt>
      <trkpt lat="49.1136" lon="1.94015">
        <ele>69</ele>
        <time>2024-05-05T13:33:56Z</time>
      </trkpt>
      <trkpt lat="49.11325" lon="1.93983">
        <ele>67</ele>
        <time>2024-05-05T13:34:29Z</time>
      </trkpt>
      <trkpt lat="49.11292" lon="1.93915">
        <ele>70</ele>
        <time>2024-05-05T13:35:13Z</time>
      </trkpt>
      <trkpt lat="49.1125" lon="1.93858">
        <ele>69</ele>
        <time>2024-05-05T13:35:58Z</time>
      </trkpt>
      <trkpt lat="49.11194" lon="1.93796">
        <ele>74</ele>
        <time>2024-05-05T13:36:54Z</time>
      </trkpt>
      <trkpt lat="49.11187" lon="1.93782">
        <ele>75</ele>
        <time>2024-05-05T13:37:03Z</time>
      </trkpt>
      <trkpt lat="49.11186" lon="1.93767">
        <ele>77</ele>
        <time>2024-05-05T13:37:11Z</time>
      </trkpt>
      <trkpt lat="49.1116" lon="1.93754">
        <ele>78</ele>
        <time>2024-05-05T13:37:33Z</time>
      </trkpt>
      <trkpt lat="49.11111" lon="1.93708">
        <ele>83</ele>
        <time>2024-05-05T13:38:19Z</time>
      </trkpt>
      <trkpt lat="49.11075" lon="1.93641">
        <ele>88</ele>
        <time>2024-05-05T13:39:04Z</time>
      </trkpt>
      <trkpt lat="49.11073" lon="1.93623">
        <ele>89</ele>
        <time>2024-05-05T13:39:14Z</time>
      </trkpt>
      <trkpt lat="49.11084" lon="1.93652">
        <ele>87</ele>
        <time>2024-05-05T13:39:31Z</time>
      </trkpt>
      <trkpt lat="49.11087" lon="1.93654">
        <ele>87</ele>
        <time>2024-05-05T13:39:34Z</time>
      </trkpt>
      <trkpt lat="49.11092" lon="1.9365">
        <ele>87</ele>
        <time>2024-05-05T13:39:39Z</time>
      </trkpt>
      <trkpt lat="49.11126" lon="1.93556">
        <ele>93</ele>
        <time>2024-05-05T13:40:35Z</time>
      </trkpt>
      <trkpt lat="49.11113" lon="1.93523">
        <ele>94</ele>
        <time>2024-05-05T13:40:55Z</time>
      </trkpt>
      <trkpt lat="49.11116" lon="1.93485">
        <ele>94</ele>
        <time>2024-05-05T13:41:15Z</time>
      </trkpt>
      <trkpt lat="49.11104" lon="1.93436">
        <ele>95</ele>
        <time>2024-05-05T13:41:43Z</time>
      </trkpt>
      <trkpt lat="49.11103" lon="1.93412">
        <ele>96</ele>
        <time>2024-05-05T13:41:55Z</time>
      </trkpt>
      <trkpt lat="49.11128" lon="1.93351">
        <ele>96</ele>
        <time>2024-05-05T13:42:33Z</time>
      </trkpt>
      <trkpt lat="49.11151" lon="1.93308">
        <ele>96</ele>
        <time>2024-05-05T13:43:02Z</time>
      </trkpt>
      <trkpt lat="49.11156" lon="1.93289">
        <ele>96</ele>
        <time>2024-05-05T13:43:13Z</time>
      </trkpt>
      <trkpt lat="49.11149" lon="1.93264">
        <ele>96</ele>
        <time>2024-05-05T13:43:27Z</time>
      </trkpt>
      <trkpt lat="49.11154" lon="1.93231">
        <ele>97</ele>
        <time>2024-05-05T13:43:45Z</time>
      </trkpt>
      <trkpt lat="49.11151" lon="1.93223">
        <ele>97</ele>
        <time>2024-05-05T13:43:50Z</time>
      </trkpt>
      <trkpt lat="49.11163" lon="1.9317">
        <ele>98</ele>
        <time>2024-05-05T13:44:19Z</time>
      </trkpt>
      <trkpt lat="49.11162" lon="1.93129">
        <ele>98</ele>
        <time>2024-05-05T13:44:40Z</time>
      </trkpt>
      <trkpt lat="49.11185" lon="1.92965">
        <ele>98</ele>
        <time>2024-05-05T13:46:08Z</time>
      </trkpt>
      <trkpt lat="49.11182" lon="1.92774">
        <ele>101</ele>
        <time>2024-05-05T13:47:48Z</time>
      </trkpt>
      <trkpt lat="49.11185" lon="1.92755">
        <ele>101</ele>
        <time>2024-05-05T13:47:59Z</time>
      </trkpt>
      <trkpt lat="49.11176" lon="1.92594">
        <ele>102</ele>
        <time>2024-05-05T13:49:23Z</time>
      </trkpt>
      <trkpt lat="49.11179" lon="1.92524">
        <ele>102</ele>
        <time>2024-05-05T13:50:00Z</time>
      </trkpt>
      <trkpt lat="49.11187" lon="1.9247">
        <ele>102</ele>
        <time>2024-05-05T13:50:29Z</time>
      </trkpt>
      <trkpt lat="49.11225" lon="1.923">
        <ele>103</ele>
        <time>2024-05-05T13:52:03Z</time>
      </trkpt>
      <trkpt lat="49.1124" lon="1.92199">
        <ele>104</ele>
        <time>2024-05-05T13:52:58Z</time>
      </trkpt>
      <trkpt lat="49.11249" lon="1.92164">
        <ele>105</ele>
        <time>2024-05-05T13:53:17Z</time>
      </trkpt>
      <trkpt lat="49.11254" lon="1.92112">
        <ele>107</ele>
        <time>2024-05-05T13:53:45Z</time>
      </trkpt>
      <trkpt lat="49.11256" lon="1.91998">
        <ele>108</ele>
        <time>2024-05-05T13:54:45Z</time>
      </trkpt>
      <trkpt lat="49.11265" lon="1.91875">
        <ele>108</ele>
        <time>2024-05-05T13:55:49Z</time>
      </trkpt>
      <trkpt lat="49.1126" lon="1.91668">
        <ele>110</ele>
        <time>2024-05-05T13:57:38Z</time>
      </trkpt>
      <trkpt lat="49.11262" lon="1.91373">
        <ele>109</ele>
        <time>2024-05-05T14:00:13Z</time>
      </trkpt>
      <trkpt lat="49.11273" lon="1.91233">
        <ele>110</ele>
        <time>2024-05-05T14:01:27Z</time>
      </trkpt>
      <trkpt lat="49.11277" lon="1.91122">
        <ele>109</ele>
        <time>2024-05-05T14:02:25Z</time>
      </trkpt>
      <trkpt lat="49.11282" lon="1.91092">
        <ele>110</ele>
        <time>2024-05-05T14:02:41Z</time>
      </trkpt>
      <trkpt lat="49.11282" lon="1.91036">
        <ele>111</ele>
        <time>2024-05-05T14:03:10Z</time>
      </trkpt>
      <trkpt lat="49.11279" lon="1.91029">
        <ele>111</ele>
        <time>2024-05-05T14:03:15Z</time>
      </trkpt>
      <trkpt lat="49.1126" lon="1.91033">
        <ele>112</ele>
        <time>2024-05-05T14:03:30Z</time>
      </trkpt>
      <trkpt lat="49.1124" lon="1.91031">
        <ele>112</ele>
        <time>2024-05-05T14:03:46Z</time>
      </trkpt>
      <trkpt lat="49.11233" lon="1.91027">
        <ele>112</ele>
        <time>2024-05-05T14:03:52Z</time>
      </trkpt>
      <trkpt lat="49.11234" lon="1.91019">
        <ele>112</ele>
        <time>2024-05-05T14:03:56Z</time>
      </trkpt>
      <trkpt lat="49.11235" lon="1.91025">
        <ele>112</ele>
        <time>2024-05-05T14:04:00Z</time>
      </trkpt>
      <trkpt lat="49.11246" lon="1.91022">
        <ele>112</ele>
        <time>2024-05-05T14:04:09Z</time>
      </trkpt>
      <trkpt lat="49.1124" lon="1.91024">
        <ele>112</ele>
        <time>2024-05-05T14:04:14Z</time>
      </trkpt>
      <trkpt lat="49.11245" lon="1.91024">
        <ele>112</ele>
        <time>2024-05-05T14:04:18Z</time>
      </trkpt>
      <trkpt lat="49.11243" lon="1.91031">
        <ele>112</ele>
        <time>2024-05-05T14:04:22Z</time>
      </trkpt>
      <trkpt lat="49.11225" lon="1.91039">
        <ele>112</ele>
        <time>2024-05-05T14:04:37Z</time>
      </trkpt>
      <trkpt lat="49.11201" lon="1.91041">
        <ele>112</ele>
        <time>2024-05-05T14:04:56Z</time>
      </trkpt>
      <trkpt lat="49.11167" lon="1.91021">
        <ele>112</ele>
        <time>2024-05-05T14:05:25Z</time>
      </trkpt>
      <trkpt lat="49.11146" lon="1.90998">
        <ele>113</ele>
        <time>2024-05-05T14:05:46Z</time>
      </trkpt>
      <trkpt lat="49.11084" lon="1.9101">
        <ele>114</ele>
        <time>2024-05-05T14:06:36Z</time>
      </trkpt>
      <trkpt lat="49.11057" lon="1.90986">
        <ele>113</ele>
        <time>2024-05-05T14:07:01Z</time>
      </trkpt>
      <trkpt lat="49.11017" lon="1.90975">
        <ele>110</ele>
        <time>2024-05-05T14:07:33Z</time>
      </trkpt>
      <trkpt lat="49.1099" lon="1.90935">
        <ele>109</ele>
        <time>2024-05-05T14:08:03Z</time>
      </trkpt>
      <trkpt lat="49.10991" lon="1.90917">
        <ele>109</ele>
        <time>2024-05-05T14:08:13Z</time>
      </trkpt>
      <trkpt lat="49.11006" lon="1.90892">
        <ele>111</ele>
        <time>2024-05-05T14:08:31Z</time>
      </trkpt>
      <trkpt lat="49.11008" lon="1.90878">
        <ele>111</ele>
        <time>2024-05-05T14:08:38Z</time>
      </trkpt>
      <trkpt lat="49.11023" lon="1.90849">
        <ele>113</ele>
        <time>2024-05-05T14:08:58Z</time>
      </trkpt>
      <trkpt lat="49.11025" lon="1.90834">
        <ele>113</ele>
        <time>2024-05-05T14:09:06Z</time>
      </trkpt>
      <trkpt lat="49.11044" lon="1.90802">
        <ele>114</ele>
        <time>2024-05-05T14:09:28Z</time>
      </trkpt>
      <trkpt lat="49.1107" lon="1.90731">
        <ele>112</ele>
        <time>2024-05-05T14:10:11Z</time>
      </trkpt>
      <trkpt lat="49.11079" lon="1.90721">
        <ele>112</ele>
        <time>2024-05-05T14:10:20Z</time>
      </trkpt>
      <trkpt lat="49.11099" lon="1.90678">
        <ele>110</ele>
        <time>2024-05-05T14:10:47Z</time>
      </trkpt>
      <trkpt lat="49.11128" lon="1.90593">
        <ele>109</ele>
        <time>2024-05-05T14:11:38Z</time>
      </trkpt>
      <trkpt lat="49.11089" lon="1.9056">
        <ele>108</ele>
        <time>2024-05-05T14:12:13Z</time>
      </trkpt>
      <trkpt lat="49.11013" lon="1.90506">
        <ele>111</ele>
        <time>2024-05-05T14:13:20Z</time>
      </trkpt>
      <trkpt lat="49.10961" lon="1.90462">
        <ele>112</ele>
        <time>2024-05-05T14:14:08Z</time>
      </trkpt>
      <trkpt lat="49.10914" lon="1.90431">
        <ele>113</ele>
        <time>2024-05-05T14:14:49Z</time>
      </trkpt>
      <trkpt lat="49.10891" lon="1.90407">
        <ele>114</ele>
        <time>2024-05-05T14:15:11Z</time>
      </trkpt>
      <trkpt lat="49.10858" lon="1.90349">
        <ele>115</ele>
        <time>2024-05-05T14:15:52Z</time>
      </trkpt>
      <trkpt lat="49.1081" lon="1.90244">
        <ele>115</ele>
        <time>2024-05-05T14:16:59Z</time>
      </trkpt>
      <trkpt lat="49.10763" lon="1.90157">
        <ele>116</ele>
        <time>2024-05-05T14:17:58Z</time>
      </trkpt>
      <trkpt lat="49.10749" lon="1.90143">
        <ele>116</ele>
        <time>2024-05-05T14:18:11Z</time>
      </trkpt>
      <trkpt lat="49.10728" lon="1.90132">
        <ele>116</ele>
        <time>2024-05-05T14:18:29Z</time>
      </trkpt>
      <trkpt lat="49.1065" lon="1.90062">
        <ele>116</ele>
        <time>2024-05-05T14:19:41Z</time>
      </trkpt>
      <trkpt lat="49.10625" lon="1.90031">
        <ele>116</ele>
        <time>2024-05-05T14:20:07Z</time>
      </trkpt>
      <trkpt lat="49.10574" lon="1.89984">
        <ele>117</ele>
        <time>2024-05-05T14:20:55Z</time>
      </trkpt>
      <trkpt lat="49.10542" lon="1.89948">
        <ele>118</ele>
        <time>2024-05-05T14:21:27Z</time>
      </trkpt>
      <trkpt lat="49.10527" lon="1.89927">
        <ele>118</ele>
        <time>2024-05-05T14:21:43Z</time>
      </trkpt>
      <trkpt lat="49.10501" lon="1.89867">
        <ele>119</ele>
        <time>2024-05-05T14:22:21Z</time>
      </trkpt>
      <trkpt lat="49.10465" lon="1.89815">
        <ele>120</ele>
        <time>2024-05-05T14:23:00Z</time>
      </trkpt>
      <trkpt lat="49.10419" lon="1.89719">
        <ele>120</ele>
        <time>2024-05-05T14:24:03Z</time>
      </trkpt>
      <trkpt lat="49.10281" lon="1.89526">
        <ele>127</ele>
        <time>2024-05-05T14:26:33Z</time>
      </trkpt>
      <trkpt lat="49.10181" lon="1.89404">
        <ele>131</ele>
        <time>2024-05-05T14:28:15Z</time>
      </trkpt>
      <trkpt lat="49.10163" lon="1.89446">
        <ele>131</ele>
        <time>2024-05-05T14:28:41Z</time>
      </trkpt>
      <trkpt lat="49.10133" lon="1.89494">
        <ele>131</ele>
        <time>2024-05-05T14:29:16Z</time>
      </trkpt>
      <trkpt lat="49.10078" lon="1.89537">
        <ele>132</ele>
        <time>2024-05-05T14:30:06Z</time>
      </trkpt>
      <trkpt lat="49.10072" lon="1.89537">
        <ele>132</ele>
        <time>2024-05-05T14:30:10Z</time>
      </trkpt>
      <trkpt lat="49.10066" lon="1.89531">
        <ele>132</ele>
        <time>2024-05-05T14:30:16Z</time>
      </trkpt>
      <trkpt lat="49.1006" lon="1.8952">
        <ele>133</ele>
        <time>2024-05-05T14:30:24Z</time>
      </trkpt>
      <trkpt lat="49.10059" lon="1.89503">
        <ele>133</ele>
        <time>2024-05-05T14:30:33Z</time>
      </trkpt>
      <trkpt lat="49.10053" lon="1.89498">
        <ele>133</ele>
        <time>2024-05-05T14:30:38Z</time>
      </trkpt>
      <trkpt lat="49.10034" lon="1.89505">
        <ele>134</ele>
        <time>2024-05-05T14:30:54Z</time>
      </trkpt>
      <trkpt lat="49.10018" lon="1.89527">
        <ele>134</ele>
        <time>2024-05-05T14:31:11Z</time>
      </trkpt>
      <trkpt lat="49.10007" lon="1.8953">
        <ele>134</ele>
        <time>2024-05-05T14:31:20Z</time>
      </trkpt>
      <trkpt lat="49.09971" lon="1.89524">
        <ele>135</ele>
        <time>2024-05-05T14:31:49Z</time>
      </trkpt>
      <trkpt lat="49.09925" lon="1.89526">
        <ele>136</ele>
        <time>2024-05-05T14:32:26Z</time>
      </trkpt>
      <trkpt lat="49.09861" lon="1.89536">
        <ele>135</ele>
        <time>2024-05-05T14:33:17Z</time>
      </trkpt>
      <trkpt lat="49.09828" lon="1.89535">
        <ele>134</ele>
        <time>2024-05-05T14:33:44Z</time>
      </trkpt>
      <trkpt lat="49.09787" lon="1.89542">
        <ele>133</ele>
        <time>2024-05-05T14:34:17Z</time>
      </trkpt>
      <trkpt lat="49.09713" lon="1.89547">
        <ele>133</ele>
        <time>2024-05-05T14:35:16Z</time>
      </trkpt>
      <trkpt lat="49.09692" lon="1.89555">
        <ele>133</ele>
        <time>2024-05-05T14:35:33Z</time>
      </trkpt>
      <trkpt lat="49.09639" lon="1.89594">
        <ele>132</ele>
        <time>2024-05-05T14:36:21Z</time>
      </trkpt>
      <trkpt lat="49.09592" lon="1.89647">
        <ele>130</ele>
        <time>2024-05-05T14:37:07Z</time>
      </trkpt>
      <trkpt lat="49.09552" lon="1.8968">
        <ele>128</ele>
        <time>2024-05-05T14:37:44Z</time>
      </trkpt>
      <trkpt lat="49.09533" lon="1.89705">
        <ele>127</ele>
        <time>2024-05-05T14:38:04Z</time>
      </trkpt>
      <trkpt lat="49.09501" lon="1.89732">
        <ele>126</ele>
        <time>2024-05-05T14:38:33Z</time>
      </trkpt>
      <trkpt lat="49.09471" lon="1.89745">
        <ele>125</ele>
        <time>2024-05-05T14:38:58Z</time>
      </trkpt>
      <trkpt lat="49.09442" lon="1.89752">
        <ele>124</ele>
        <time>2024-05-05T14:39:22Z</time>
      </trkpt>
      <trkpt lat="49.09407" lon="1.8975">
        <ele>122</ele>
        <time>2024-05-05T14:39:50Z</time>
      </trkpt>
      <trkpt lat="49.09375" lon="1.89742">
        <ele>120</ele>
        <time>2024-05-05T14:40:16Z</time>
      </trkpt>
      <trkpt lat="49.09337" lon="1.89747">
        <ele>118</ele>
        <time>2024-05-05T14:40:46Z</time>
      </trkpt>
      <trkpt lat="49.09309" lon="1.89766">
        <ele>114</ele>
        <time>2024-05-05T14:41:11Z</time>
      </trkpt>
      <trkpt lat="49.09295" lon="1.89782">
        <ele>111</ele>
        <time>2024-05-05T14:41:25Z</time>
      </trkpt>
      <trkpt lat="49.0926" lon="1.8987">
        <ele>109</ele>
        <time>2024-05-05T14:42:19Z</time>
      </trkpt>
      <trkpt lat="49.09228" lon="1.89929">
        <ele>108</ele>
        <time>2024-05-05T14:42:59Z</time>
      </trkpt>
      <trkpt lat="49.09202" lon="1.89964">
        <ele>109</ele>
        <time>2024-05-05T14:43:26Z</time>
      </trkpt>
      <trkpt lat="49.09175" lon="1.8997">
        <ele>108</ele>
        <time>2024-05-05T14:43:48Z</time>
      </trkpt>
      <trkpt lat="49.09164" lon="1.8997">
        <ele>107</ele>
        <time>2024-05-05T14:43:57Z</time>
      </trkpt>
      <trkpt lat="49.09133" lon="1.89957">
        <ele>104</ele>
        <time>2024-05-05T14:44:23Z</time>
      </trkpt>
      <trkpt lat="49.09088" lon="1.89925">
        <ele>99</ele>
        <time>2024-05-05T14:45:03Z</time>
      </trkpt>
      <trkpt lat="49.09014" lon="1.89912">
        <ele>95</ele>
        <time>2024-05-05T14:46:02Z</time>
      </trkpt>
      <trkpt lat="49.08987" lon="1.89898">
        <ele>92</ele>
        <time>2024-05-05T14:46:25Z</time>
      </trkpt>
      <trkpt lat="49.0896" lon="1.89906">
        <ele>92</ele>
        <time>2024-05-05T14:46:47Z</time>
      </trkpt>
      <trkpt lat="49.08926" lon="1.899">
        <ele>90</ele>
        <time>2024-05-05T14:47:15Z</time>
      </trkpt>
      <trkpt lat="49.0889" lon="1.89884">
        <ele>87</ele>
        <time>2024-05-05T14:47:45Z</time>
      </trkpt>
      <trkpt lat="49.08872" lon="1.89857">
        <ele>84</ele>
        <time>2024-05-05T14:48:05Z</time>
      </trkpt>
      <trkpt lat="49.08863" lon="1.89819">
        <ele>82</ele>
        <time>2024-05-05T14:48:26Z</time>
      </trkpt>
      <trkpt lat="49.08849" lon="1.89786">
        <ele>81</ele>
        <time>2024-05-05T14:48:47Z</time>
      </trkpt>
      <trkpt lat="49.08839" lon="1.89727">
        <ele>81</ele>
        <time>2024-05-05T14:49:19Z</time>
      </trkpt>
      <trkpt lat="49.08827" lon="1.89692">
        <ele>81</ele>
        <time>2024-05-05T14:49:39Z</time>
      </trkpt>
      <trkpt lat="49.08804" lon="1.89659">
        <ele>82</ele>
        <time>2024-05-05T14:50:05Z</time>
      </trkpt>
      <trkpt lat="49.08781" lon="1.89636">
        <ele>82</ele>
        <time>2024-05-05T14:50:27Z</time>
      </trkpt>
      <trkpt lat="49.08757" lon="1.89619">
        <ele>82</ele>
        <time>2024-05-05T14:50:48Z</time>
      </trkpt>
      <trkpt lat="49.0872" lon="1.89574">
        <ele>81</ele>
        <time>2024-05-05T14:51:26Z</time>
      </trkpt>
      <trkpt lat="49.08707" lon="1.89576">
        <ele>81</ele>
        <time>2024-05-05T14:51:36Z</time>
      </trkpt>
      <trkpt lat="49.08684" lon="1.89563">
        <ele>80</ele>
        <time>2024-05-05T14:51:56Z</time>
      </trkpt>
      <trkpt lat="49.08677" lon="1.89564">
        <ele>80</ele>
        <time>2024-05-05T14:52:01Z</time>
      </trkpt>
      <trkpt lat="49.08668" lon="1.89577">
        <ele>79</ele>
        <time>2024-05-05T14:52:11Z</time>
      </trkpt>
      <trkpt lat="49.08663" lon="1.89595">
        <ele>79</ele>
        <time>2024-05-05T14:52:21Z</time>
      </trkpt>
      <trkpt lat="49.08671" lon="1.89587">
        <ele>79</ele>
        <time>2024-05-05T14:52:29Z</time>
      </trkpt>
      <trkpt lat="49.08673" lon="1.89557">
        <ele>80</ele>
        <time>2024-05-05T14:52:45Z</time>
      </trkpt>
      <trkpt lat="49.08684" lon="1.89568">
        <ele>80</ele>
        <time>2024-05-05T14:52:55Z</time>
      </trkpt>
    </trkseg>
  </trk>
</gpx>